Tracking 17694 objects as of 30-May-2016
HD Live streaming from Space Station
objects crossing your sky now

METEOSAT 5 AKM

Track METEOSAT 5 AKM now!


NORAD ID: 21904
Int'l Code: 1991-015E
Perigee: 35,148.7 km
Apogee: 36,494.0 km
Inclination: 14.4 °
Period: 1,437.5 minutes
Semi major axis: 42192 km
RCS: 0.9471 m2 (medium)
Launch date: March 2, 1991
Source: European Space Agency (ESA)
Launch site: FRENCH GUIANA (FRGUI)

Note: This is a ROCKET BODY
Your satellite tracking list
Your tracking list is empty





NASA's NSSDC Master Catalog

Two Line Element Set (TLE):
1 21904U 91015E   16145.49117696 -.00000207 +00000-0 +00000-0 0  9992
2 21904 014.4222 009.2784 0159425 137.2124 071.2753 01.00173225079551
Source of the keplerian elements: AFSPC

N2YO: 522